GLONASS-K 2

Last updated on Jan. 15, 2021, 6:30 a.m. UTC

1 40315U 14075A   21014.85733115  .00000031  00000-0  00000-0 0  9995
2 40315  63.8167 259.3694 0015748 210.2610  67.3733  2.13101375 47677
UTC
Height (km)
Latitude
Longitude
Inclination
Orbital Period
UTC large
Height (km)
Speed (km/s)
/
Latitude / Longitude
Inclination (degrees)
Orbital Period (minutes)
Azimuth
Elevation
Range (km)
Doppler Factor
iOS Compass Heading
iOS Angle

Next 30 passes for location: Hong Kong

Rise time Rise Azimuth (degrees) Set time Set Azimuth (degrees) Duration Max altitude (degrees)

No matching passes for this satellites